Location: Coopersdale
(40.3556°N, 78.9372°W)
Time: 10:24:50
(UTC+00:00)

Vanguard 1 Rocket - All Passes

Search period start: 24 January 2021 00:00
Search period end: 03 February 2021 00:00
Orbit: 655 x 4222 km, 34.3° (Epoch: 23 January)

Date Brightness Start Highest point End Pass type
(mag) Time Alt. Az. Time Alt. Az. Time Alt. Az.
24 Jan - 14:34:36 10° S 14:38:45 15° SSE 14:42:02 10° SE daylight
24 Jan - 16:58:39 10° SW 17:03:43 33° S 17:07:44 10° ESE daylight
24 Jan - 19:23:52 10° WSW 19:28:00 38° S 19:32:36 10° ESE daylight
24 Jan - 21:48:53 10° WSW 21:52:34 20° SSW 21:57:28 10° SSE daylight
25 Jan - 13:25:50 10° SSE 13:27:20 10° SSE 13:28:43 10° SE daylight
25 Jan - 15:47:10 10° SW 15:52:56 27° SSE 15:57:03 10° ESE daylight
25 Jan - 18:12:50 10° WSW 18:17:26 41° S 18:21:38 10° ESE daylight
25 Jan - 20:37:58 10° WSW 20:41:44 26° SSW 20:46:26 10° SE daylight
26 Jan - 14:35:38 10° SSW 14:41:54 22° SSE 14:46:15 10° ESE daylight
26 Jan - 17:01:21 10° WSW 17:06:49 39° S 17:10:59 10° ESE daylight
26 Jan - 19:27:04 10° WSW 19:31:06 33° S 19:35:28 10° SE daylight
26 Jan - 21:53:05 10° SW 21:55:41 14° SSW 21:58:45 10° S daylight
27 Jan - 13:24:28 10° SSW 13:30:30 17° SSE 13:34:55 10° ESE daylight
27 Jan - 15:49:27 10° SW 15:56:04 34° S 16:00:30 10° ESE daylight
27 Jan - 18:15:52 10° WSW 18:20:32 40° S 18:24:43 10° ESE daylight
27 Jan - 20:41:32 10° WSW 20:44:48 19° SSW 20:48:39 10° SSE daylight
28 Jan - 12:14:48 10° S 12:18:42 12° SSE 12:21:59 10° SE daylight
28 Jan - 14:37:18 10° SW 14:45:02 29° SSE 14:49:59 10° ESE daylight
28 Jan - 17:04:11 10° WSW 17:09:57 43° S 17:14:11 10° ESE daylight
28 Jan - 19:30:20 10° WSW 19:34:10 27° SSW 19:38:11 10° SE daylight
29 Jan - 13:25:09 10° SSW 13:33:39 24° SSE 13:39:10 10° ESE daylight
29 Jan - 15:51:57 10° WSW 15:59:11 41° S 16:03:50 10° ESE daylight
29 Jan - 18:18:56 10° WSW 18:23:38 37° S 18:27:43 10° ESE daylight
29 Jan - 20:45:34 10° SW 20:47:50 14° SSW 20:50:19 10° S daylight
30 Jan - 12:13:35 10° SSW 12:21:51 18° SSE 12:27:38 10° ESE daylight
30 Jan - 14:39:17 10° SW 14:48:09 37° SSE 14:53:27 10° E daylight
30 Jan - 17:07:03 10° WSW 17:13:02 45° S 17:17:21 10° ESE daylight
30 Jan - 19:33:43 10° WSW 19:37:11 21° SSW 19:40:42 10° SSE daylight
31 Jan - 11:03:45 10° S 11:09:37 13° SSE 11:14:22 10° SE visible
31 Jan - 13:26:28 10° SW 13:36:46 31° SSE 13:42:55 10° ESE daylight
31 Jan - 15:54:33 10° WSW 16:02:17 47° S 16:07:04 10° ESE daylight
31 Jan - 18:22:02 10° W 18:26:40 32° SSW 18:30:37 10° SE daylight
01 Feb - 12:13:53 10° SSW 12:24:57 25° SSE 12:31:54 10° ESE daylight
01 Feb - 14:41:31 10° WSW 14:51:15 44° S 14:56:49 10° E daylight
01 Feb - 17:09:58 10° W 17:16:07 44° S 17:20:27 10° ESE daylight
01 Feb - 19:37:24 10° WSW 19:40:08 16° SSW 19:42:51 10° SSE daylight
02 Feb - 11:02:11 10° S 11:12:42 19° SSE 11:20:00 10° ESE visible
02 Feb - 13:28:08 10° SW 13:39:51 39° SSE 13:46:25 10° E daylight
02 Feb - 15:57:16 10° WSW 16:05:22 50° S 16:10:16 10° ESE daylight
02 Feb - 18:25:14 10° W 18:29:39 26° SSW 18:33:24 10° SE daylight
